Simultaneous Nadir Overpasses (SNOs) Predictions

Prediction of SNOs between AQUA and METOP-C Satellite Orbit:

Table of predicted SNOs for the next 14.0 days since TLE Epoch: 7/27/2024
Index Date (AQUA) Time (AQUA) Lat,Lon (AQUA) SZA (AQUA ) Date (METOP-C) Time (METOP-C) Lat,Lon (METOP-C) SZA (METOP-C ) Distance(km) Time Diff (sec)
1 07/29/2024 17:05:12 -75.50, 102.83 123.08 07/29/2024 17:04:12 -75.50, 102.76 123.07 2.02 60
2 07/29/2024 17:54:35 75.54, -89.64 56.98 07/29/2024 17:54:50 75.57, -89.70 57.01 3.37 15
3 08/01/2024 08:25:56 75.55, 52.54 57.64 08/01/2024 08:25:11 75.53, 52.60 57.61 3.31 45
4 08/01/2024 09:15:18 -75.59,-139.92 122.32 08/01/2024 09:15:52 -75.58,-139.90 122.33 1.19 34
5 08/03/2024 23:46:37 -75.57, 2.36 121.66 08/03/2024 23:46:12 -75.58, 2.50 121.65 3.88 25
6 08/04/2024 00:36:00 75.63, 169.87 58.41 08/04/2024 00:36:51 75.60, 169.91 58.38 3.14 51
7 08/06/2024 14:17:48 -75.27, 145.44 121.26 08/06/2024 14:16:38 -75.23, 143.87 121.27 44.68 70
8 08/06/2024 15:07:16 75.58, -47.77 59.07 08/06/2024 15:07:10 75.58, -47.72 59.08 1.58 6
9 08/06/2024 15:56:38 -75.62, 119.79 120.89 08/06/2024 15:57:51 -75.64, 119.78 120.86 2.58 73
10 08/09/2024 05:38:32 75.55, 94.54 59.78 08/09/2024 05:37:30 75.56, 94.63 59.80 2.67 62
11 08/09/2024 06:27:54 -75.59, -97.90 120.18 08/09/2024 06:28:11 -75.61, -97.88 120.15 2.93 17



Historial Predications of SNOs between AQUA and METOP-C
